Tracking 28126 objects as of 1-Oct-2023
HD Live streaming from Space Station
objects crossing your sky now

ARCSAT-1

Track ARCSAT-1 now!
10-day predictions


NORAD ID: 52161
Int'l Code: 2022-033E
Perigee: 482.8 km
Apogee: 495.0 km
Inclination: 97.3 °
Period: 94.2 minutes
Semi major axis: 6859 km
RCS: Unknown
Launch date: April 1, 2022
Source: Norway (NOR)
Launch site: AIR FORCE EASTERN TEST RANGE (AFETR)
Your satellite tracking list
Your tracking list is empty




NASA's NSSDC Master Catalog

Two Line Element Set (TLE):
1 52161U 22033E   23273.21361865  .00006675  00000-0  24675-3 0  9995
2 52161  97.3499 351.2153 0008911 161.4703 198.6862 15.28004555 83207
Source of the keplerian elements: AFSPC